Regional Weather Roundup
Issued by NWS

Home | Current Version | Previous Version | Text Only | Print | Product List | Glossary On
Versions: 1 2 3 4 5 6 7 8 9 10 11 12 13 14 15 16 17 18 19 20 21 22 23 24 25 26 27 28 29 30 31 32 33 34 35 36 37 38 39 40 41 42 43 44 45 46 47 48 49 50
000
ASUS45 KPSR 190810
RWRAZ

ARIZONA REGIONAL HOURLY WEATHER ROUNDUP
NATIONAL WEATHER SERVICE PHOENIX AZ
100 AM MST FRI DEC 19 2014

NOTE: FAIR INDICATES FEW OR NO CLOUDS BELOW 12,000 FEET WITH NO
SIGNIFICANT WEATHER AND/OR OBSTRUCTIONS TO VISIBILITY.

AZZ001>003-036-190900-
NORTHWEST ARIZONA

CITY           SKY/WX    TMP DP  RH WIND       PRES   REMARKS
BULLHEAD CITY  CLEAR     50  41  71 CALM      30.22S
KINGMAN        CLEAR     36  32  85 CALM      30.21F
$$

AZZ004>008-015-016-018-190900-
NORTH CENTRAL ARIZONA

CITY           SKY/WX    TMP DP  RH WIND       PRES   REMARKS
GRAND CANYON   CLEAR     19  16  88 CALM      30.21F
PRESCOTT       CLEAR     29  24  82 SW6       30.20F WCI  23
FLAGSTAFF      CLEAR     16  12  84 CALM      30.20F
PAGE           CLEAR     35  29  78 SW3       30.20F
$$

AZZ009>014-017-190900-
NORTHEAST ARIZONA

CITY           SKY/WX    TMP DP  RH WIND       PRES   REMARKS
WINSLOW        CLEAR     28  26  92 W3        30.22F
SAINT JOHNS    CLEAR     29  27  92 W3        30.19S
WINDOW ROCK    CLEAR     25  20  81 CALM      30.19S
SHOW LOW       CLOUDY    27  25  93 CALM      30.22F
$$

AZZ023-190900-
GREATER PHOENIX AREA

CITY           SKY/WX    TMP DP  RH WIND       PRES   REMARKS
PHOENIX        CLEAR     49  44  83 E3        30.17S
BUCKEYE          N/A     45  45 100 NE5       30.18F
LUKE AFB       CLEAR     45  45 100 N7        30.17F
DEER VALLEY    CLEAR     46  42  86 NE7       30.17F
SCOTTSDALE     CLEAR     46  41  82 CALM      30.18F
MESA-GATEWAY   CLEAR     41  41 100 E6        30.20F
$$

AZZ027-028-190900-
SOUTHWEST MARICOPA COUNTY AND PINAL COUNTY

CITY           SKY/WX    TMP DP  RH WIND       PRES   REMARKS
CASA GRANDE    CLEAR     43  39  87 CALM      30.18F
GILA BEND      FAIR      47  44  90 S6        30.18F
$$

AZZ503-504-507>509-190900-
SOUTHEAST ARIZONA

CITY           SKY/WX    TMP DP  RH WIND       PRES   REMARKS
TUCSON         CLEAR     44  39  82 SE5       30.20S
DAVIS-MONTHAN  CLEAR     39  38  98 S6        30.17F WCI  35
NOGALES        CLEAR     34  31  88 CALM      30.17F
SIERRA VISTA   CLEAR     36  30  80 SW3       30.18F
DOUGLAS        CLEAR     31  30  96 CALM      30.19S
SAFFORD        CLEAR     36  35  96 CALM      30.18S FOG
$$

AZZ020-021-025-026-031-190900-
SOUTHWEST ARIZONA

CITY           SKY/WX    TMP DP  RH WIND       PRES   REMARKS
YUMA           CLEAR    N/A N/A N/A CALM      30.19R
$$

CAZ031-033-041-043-047-048-061-190900-
SOUTHERN CALIFORNIA

CITY           SKY/WX    TMP DP  RH WIND       PRES   REMARKS
DOWNTOWN L.A.  CLEAR     51  47  86 CALM      30.21S
L.A. AIRPORT   PTCLDY    55  49  80 NE5       30.21F
SAN DIEGO      PTCLDY    57  49  74 CALM      30.22S
BURBANK        CLEAR     49  44  83 CALM      30.20F
ONTARIO        PTCLDY    51  44  77 CALM      30.22S
RIVERSIDE      CLEAR     48  43  82 E3        30.23R
PALM SPRINGS   CLEAR     52  43  71 N7        30.23S
EL CENTRO NAS  CLEAR     48  44  86 CALM      30.20S
IMPERIAL       CLEAR     48  43  82 W5        30.19F
BLYTHE         CLEAR     49  42  77 NW7       30.19F
NEEDLES        CLEAR     48  41  76 W7        30.20F
$$

NVZ020-UTZ003-190900-
SOUTHERN NEVADA-UTAH

CITY           SKY/WX    TMP DP  RH WIND       PRES   REMARKS
LAS VEGAS      PTCLDY    44  36  73 S9        30.18S
SALT LAKE CITY PTCLDY    32  26  78 S8        30.18F WCI  25
$$

NMZ009-TXZ055-190900-
NEW MEXICO-WEST TEXAS

CITY           SKY/WX    TMP DP  RH WIND       PRES   REMARKS
ALBUQUERQUE    CLEAR     35  27  72 NW9       30.15F WCI  28
EL PASO        MOCLDY    43  39  86 CALM      30.13S
$$


........................KEY........................
SKY/WX - SKY CONDITION/WEATHER
TMP    - TEMPERATURE IN FAHRENHEIT
DP     - DEW POINT IN FAHRENHEIT
RH     - RELATIVE HUMIDITY IN PERCENT
WIND   - DIRECTION AND SPEED IN MILES PER HOUR (MPH)
VRB    - VARIABLE WIND DIRECTION
PRES   - MEAN SEA LEVEL PRESSURE IN INCHES OF MERCURY
         F - FALLING PRESSURE   R - RISING PRESSURE
         S - STEADY PRESSURE
VSB    - VISIBILITY IN MILES
HX     - HEAT INDEX IN FAHRENHEIT
WCI    - WIND CHILL INDEX IN FAHRENHEIT
TC     - TEMPERATURE IN CELSIUS WHICH IS ALSO KNOWN AS
         TEMPERATURE IN CENTIGRADE
AFB    - AIR FORCE BASE
         LUKE AFB IS LUKE AIR FORCE BASE
         DAVIS-MONTHAN IS DAVIS-MONTHAN AIR FORCE BASE
NAS    - NAVAL AIR STATION
         EL CENTRO NAS IS EL CENTRO NAVAL AIR STATION
N/A    - NOT AVAILABLE



USA.gov is the U.S. government's official web portal to all federal, state and local government web resources and services.